Regional Weather Roundup
Issued by NWS Grand Forks, ND

Home | Current Version | Previous Version | Text Only | Print | Product List | Glossary On
Versions: 1 2 3 4 5 6 7 8 9 10 11 12 13 14 15 16 17 18 19 20 21 22 23 24 25 26 27 28 29 30 31 32 33 34 35 36 37 38 39 40 41 42 43 44 45 46 47 48 49 50
000
ASUS43 KFGF 262131
RWRFGF
PRAIRIE TO PINES  WEATHER ROUNDUP
NATIONAL WEATHER SERVICE EASTERN NORTH DAKOTA/GRAND FORKS ND
300 PM CST SUN FEB 26 2017

 **SATELLITE DATA USED TO AUGMENT SKY COVER AT AUTOMATED STATIONS**
 *****  WEATHER ACROSS EASTERN NORTH DAKOTA  *****

CITY           SKY/WX    TMP DP  RH WIND       PRES   REMARKS
GRAND FORKS    FAIR      19   5  54 SW14      29.86S WCI   6
GRAND FRKS AFB FAIR      20   7  58 W10       29.86R WCI   9
DEVILS LAKE    FAIR      13  10  88 SW5       29.81F WCI   5
FARGO            N/A     20   9  62 MISG      29.89R
WAHPETON ARPT    N/A     19  10  68 W5        29.90R WCI  13
$$

 ***** WEATHER ACROSS CENTRAL AND WESTERN NORTH DAKOTA  *****

CITY           SKY/WX    TMP DP  RH WIND       PRES   REMARKS
BISMARCK       CLOUDY    22  16  78 E9        29.78F WCI  12
MINOT          FAIR      22  10  60 VRB7      29.76F WCI  13
JAMESTOWN      CLOUDY    22  11  62 W6        29.80F WCI  14
MINOT AFB      FAIR      21  11  63 SW8       29.76F WCI  12
GARRISON         N/A     22  14  71 CALM      29.76F
WILLISTON      FAIR      23  14  68 NW7       29.77S WCI  15
DICKINSON      PTSUNNY   28  21  75 N14       29.68R WCI  17
HETTINGER      FLURRIES  33  23  66 W20       29.71S WCI  21
$$

 *****  OTHER AIRPORT OBSERVATIONS IN OUR AREA  *****

CITY           SKY/WX    TMP DP  RH WIND       PRES   REMARKS
WALHALLA       NOT AVBL
GRAFTON AIRPOR FAIR      19   9  63 SW13      29.86S WCI   7
VALLEY CITY AR CLOUDY    21  14  73 SW8       29.85R WCI  12
CANDO          NOT AVBL
CAVALIER APRT    N/A     19   7  58 SW9       29.82R WCI   9
GWINNER        CLOUDY    23  18  80 CALM      29.85S
SHEYENNE NWR     N/A     24  10  54 SW5       29.95  WCI  18
ROLLA          FAIR      14   9  79 SW13      29.75S WCI   0
 ***** THE ABOVE OBSERVATIONS ARE NON NWS ARE NOT QUALITY
       CONTROLLED AND MAY MIS-REPORT RAIN FOR SNOW...
$$

  *****  WEATHER ACROSS NORTHERN MINNESOTA  *****

CITY           SKY/WX    TMP DP  RH WIND       PRES   REMARKS
FLAG ISLAND    FAIR      19   0  42 W13       29.75S WCI   7
WARROAD        FAIR      18   5  57 SW10      29.79S WCI   6
ROSEAU         FAIR      16   5  62 W12G18    29.80S WCI   3
HALLOCK        FAIR      19   9  63 SW10      29.83S WCI   8
THF RVR FALLS    N/A    N/A N/A N/A MISG        N/A
BAUDETTE       FAIR      19   2  47 NW9       29.76S WCI   8
WASKISH        FAIR      19   7  58 SW9       29.80R WCI   9
CROOKSTON      FAIR      18   7  62 W12       29.89R WCI   5
STEPHEN NDAWN    N/A     18   9  68 SW7         N/A  WCI   8
GREENBUSH NDAW   N/A     16   5  62 W10         N/A  WCI   3
$$
  *****  WEATHER ACROSS CENTRAL AND WEST MINNESOTA  *****

CITY           SKY/WX    TMP DP  RH WIND       PRES   REMARKS
FOSSTON        FAIR      19   7  58 SW9       29.84R WCI   9
BEMIDJI        FAIR      20   4  48 W10       29.80R WCI   9
PARK RAPIDS    FAIR      22   5  48 W9        29.79S WCI  12
ELBOW LAKE     MOCLDY    16   8  70 NW6       29.88R WCI   7
WADENA         FAIR      19   9  63 W8        29.83R WCI   9
DETROIT LAKES  FAIR      21  10  63 NW7       29.85R WCI  13
MOORHEAD       FAIR      18   9  68 NW6       29.90R WCI   9
FERGUS FALLS   FAIR      18  10  73 NW6       29.92R WCI   9
MORRIS MN      CLOUDY    23  12  63 NW9       29.87R WCI  13
STAPLES        FAIR      19   9  63 W9        29.83R WCI   9
$$
  *****  WEATHER ELSEWHERE ACROSS MINNESOTA  *****

CITY           SKY/WX    TMP DP  RH WIND       PRES   REMARKS
DULUTH         FAIR      21   2  43 NW14G20   29.76R WCI   8
INTRNTL FALLS  FAIR      18   1  47 W13       29.77S WCI   5
ELY            FAIR      18  -2  41 NW9G22    29.73R WCI   6
CLOQUET        FAIR      21   1  42 W10       29.79R WCI  10
WHEATON        CLOUDY    21  12  68 N3        29.90F
BRAINERD       FAIR      23   4  44 CALM      29.82R
HIBBING        FAIR      19   2  47 NW13      29.77R WCI   6
ALEXANDRIA     FAIR      24   9  52 W7        29.84R WCI  16
SAINT CLOUD    FAIR      31  12  45 W10G18    29.82R WCI  22
MINNEAPOLIS    FAIR      38  14  37 W14       29.82R
$$

  *****  WEATHER ACROSS SOUTH DAKOTA  *****

CITY           SKY/WX    TMP DP  RH WIND       PRES   REMARKS
SIOUX FALLS    FAIR      36  25  64 W8        29.86F
BROOKINGS      NOT AVBL
WATERTOWN      FAIR      34  18  52 W9        29.80F
HURON          FAIR      43  21  41 W10       29.80F
SISSETON         N/A     25  17  72 NE5       29.85F WCI  19
ABERDEEN       PTSUNNY   30  18  60 VRB3      29.82F
MITCHELL       FAIR      41  24  51 S14G21    29.84F
PIERRE         PTSUNNY   42  11  28 W14       29.76F
MOBRIDGE       FAIR      39  21  48 N6        29.72F
RAPID CITY     FAIR      37  14  38 N6        29.75S
$$

  *****  SOME WEATHER IN NEARBY STATES *****

CITY           SKY/WX    TMP DP  RH WIND       PRES   REMARKS
GLASGOW MT     LGT SNOW  25  17  72 N15       29.78R WCI  13
GREAT FALLS MT LGT SNOW  22  15  75 N14       29.74S WCI   9
CHEYENNE WY    FAIR      25  12  58 S10       29.74F WCI  15
SCOTTSBLUFF NE FAIR      32  16  51 W16       29.82F WCI  21
OMAHA NE       FAIR      44  22  41 CALM      29.93F
DES MOINES IA  FAIR      46  19  34 W18G29    29.92S
DAVENPORT IA   PTSUNNY   47  26  44 W16       29.92S
CHICAGO IL     FAIR      49  20  31 SW23G33   29.92S
EAU CLAIRE WI  FAIR      34  22  61 W16G23    29.79R WCI  24
LA CROSSE WI   FAIR      41  25  53 W14       29.84R
$$

  *****  SOME NATIONAL WEATHER *****

CITY           SKY/WX    TMP DP  RH WIND       PRES   REMARKS
LA GUARDIA NY  FAIR      45  15  30 W21G28    30.06R
RALEIGH NC     FAIR      55  13  18 VRB6G17   30.18R
ATLANTA GA     FAIR      62  17  17 W7        30.17F
NEW ORLEANS LA PTSUNNY   67  51  56 SE16G22   30.11F
OKLAHOMA CITY  PTSUNNY   58  32  37 VRB7      29.86F
ALBUQUERQUE NM CLOUDY    44  21  40 N16       29.91F
SALT LAKE CITY FAIR      38  16  40 S18G25    29.83F
LOS ANGELES CA PTSUNNY   54  48  80 E12       29.97F
BOISE ID       CLOUDY    37  18  46 SE18      29.74F
SEATTLE WA     LGT RAIN  40  37  89 NE6       29.68F
$$

*** WEATHER ACROSS MANITOBA...SASKATCHEWAN AND ONTARIO ***
                ***ONTARIO***

CITY           SKY/WX    TMP DP  RH WIND       PRES   REMARKS
GERALDTON      FLURRIES  18   7  62 W10       29.56R WCI   6
THUNDER BAY    PTSUNNY   19   3  49 W17G29    29.69R WCI   4
SIOUX LOOKOUT  FLURRIES  10   0  61 W8G17     29.70R WCI  -1
TORONTO        MOSUNNY   37  16  41 SW13G20   29.99F
BIG TROUT LK   PTSUNNY    5  -2  72 NW9       29.62R WCI  -9
PICKLE LAKE    FLURRIES  10  -2  56 W10       29.61R WCI  -3
DRYDEN         CLOUDY    12   1  62 W17       29.71R WCI  -5
KENORA         MOSUNNY   14   1  57 W7        29.72S WCI   4
$$
                *** MANITOBA***

CITY           SKY/WX    TMP DP  RH WIND       PRES   REMARKS
BRANDON        LGT SNOW  18  12  79 SW13      29.74R WCI   4
DAUPHIN        CLOUDY    21  12  68 W18       29.70S WCI   6
ISLAND LAKE    PTSUNNY    5  -4  66 W9        29.69R WCI  -9
PILOT MOUND      N/A     16  10  79 SW14        N/A  WCI   1
THE PAS        LGT SNOW   9   1  72 N9        29.72R WCI  -5
THOMPSON       MOSUNNY    0 -13  55 N7        29.72  WCI -13
WINNIPEG       PTSUNNY   16   7  67 SW14      29.79S WCI   1
LYNN LAKE      MOSUNNY   -8 -15  71 NW8       29.74S WCI -23
CHURCHILL      CRYSTALS -17 -22  76 NW17G23   29.73R WCI -42
GILLAM         MOSUNNY   -6 -17  59 W12       29.71R WCI -24
$$
                ***SASKATCHEWAN***

CITY           SKY/WX    TMP DP  RH WIND       PRES   REMARKS
ESTEVAN        HVY SNOW  21  18  86 W15       29.73S VSB 1/4 WCI   8
KINDERSLEY     PTSUNNY   14   1  57 NW20G26   29.79S WCI  -3
LLOYDMINSTER   MOSUNNY    5  -6  61 NW13G20   29.85S WCI -12
PRINCE ALBERT  PTSUNNY   12  -2  52 NW14G21   29.77R WCI  -3
REGINA         PTSUNNY   23   7  50 NW14      29.73S WCI  11
YORKTON        SUNNY     19   7  58 NW15      29.70R WCI   5
N. BATTLEFORD  SUNNY      7  -6  56 NW23G29   29.85S WCI -14
LA RONGE       PTSUNNY    5  -9  51 N9G18     29.81S WCI  -9
SASKATOON      MOSUNNY   10   0  61 NW25      29.79R WCI -10
SWIFT CURRENT  LGT SNOW  19  14  79 NW16G22   29.71F WCI   5
$$
NOTE: THESE ARE AUTOMATED STATIONS WITH LIMITED QUALITY CONTROL
      "FAIR" INDICATES FEW OR NO CLOUDS BELOW 12,000 FEET WITH NO
      SIGNIFICANT WEATHER AND/OR OBSTRUCTIONS TO VISIBILITY.
      SKY/WX - SKY CONDITION AND SIGNIFICANT WEATHER.
      TMP - AIR TEMPERATURE.    DP   - DEWPOINT TEMPERATURE.
      RH  - RELATIVE HUMIDITY.  PRES - PRESSURE.
      HX  - HEAT INDEX.         WCI  - WIND CHILL INDEX.
$




USA.gov is the U.S. government's official web portal to all federal, state and local government web resources and services.